Terminal Aerodrome Forecast
Issued by NWS Topeka, KS

Home | Current Version | Previous Version | Graphics & Text | Print | Product List | Glossary On
Versions: 1 2 3 4 5 6 7 8 9 10 11 12 13 14 15 16 17 18 19 20 21 22 23 24 25 26
379
FTUS43 KTOP 281429 AAB
TAFTOP
TAF AMD
KTOP 281429Z 2814/0112 20008KT 6SM BR BKN120
     FM281600 20012G18KT P6SM SCT015 BKN110
     FM281800 23014G24KT P6SM BKN150
     FM010000 30010KT P6SM BKN090
     FM010300 32014G23KT P6SM VCSH BKN035 OVC045
     FM010500 31015G22KT P6SM SCT020 OVC030
     FM010900 30012G18KT P6SM SCT100=

USA.gov is the U.S. government's official web portal to all federal, state and local government web resources and services.